User: anonymous   Login
Location: Unspecified
(0.0000°N, 0.0000°E)
Time: 10:02:37
(UTC+00:00)
Language:

STARLINK-32631 - Orbit

View from above orbital plane
View from above orbital plane
View from above satellite
View from above satellite

Ground track
Ground track

The orbit is defined by the following mean orbital elements,

1 62235U          26145.55360830 +.00000000 +00000-0 +30035-3 0 00003
2 62235  53.1593 209.3258 0001048  72.0190 288.0926 15.31711183    03
Epoch (UTC): 25 May 2026 13:17:11
Eccentricity: 0.0001048
inclination: 53.1593°
perigee height: 470 km
apogee height: 471 km
right ascension of ascending node: 209.3258°
argument of perigee: 72.0190°
revolutions per day: 15.31711183
mean anomaly at epoch: 288.0926°

The dashed part of the orbit path shows where the satellite is in the earth's shadow,  

DLR